Stations météo

réclame
Mon MeteoGroup
Perpignan, France (7747): Température de l'air & dewpoint: 20.01.2020 23:00:00 - 26.01.2020 23:00:00 (CET)Perpignan, France (7747): Température de l'air 5cm: 20.01.2020 23:00:00 - 26.01.2020 23:00:00 (CET)Perpignan, France (7747): Température de l'air -20cm & Température de l'air -100cm: 20.01.2020 23:00:00 - 26.01.2020 23:00:00 (CET)Perpignan, France (7747): Vitesse du vent & gusts: 20.01.2020 23:00:00 - 26.01.2020 23:00:00 (CET)Perpignan, France (7747): Direction du vent: 20.01.2020 23:00:00 - 26.01.2020 23:00:00 (CET)Perpignan, France (7747): reduced air pressure: 20.01.2020 23:00:00 - 26.01.2020 23:00:00 (CET)Perpignan, France (7747): visibility: 20.01.2020 23:00:00 - 26.01.2020 23:00:00 (CET)Perpignan, France (7747): Quantités de précipitations: 20.01.2020 23:00:00 - 26.01.2020 23:00:00 (CET)
Date & Time tt [°C] td [°C] tt 5cm [°C] tt -20cm [°C] tt -100cm [°C] ff [km/h] ff [knt] fx [km/h] fx [knt] dd ppp [hPa] vv [km] rr [mm]
26.01.2020 23:00:00 - - - - - - - - - - - - -
26.01.2020 22:00:00 7,2 4,3 3,0 10,5 11,6 10 5 14 8 WSW 1022,4 48 0,0
26.01.2020 21:00:00 9,3 5,1 3,8 10,5 11,6 8 5 18 10 W 1022,5 60 0,0
26.01.2020 20:00:00 9,6 5,0 2,9 10,6 11,6 5 3 9 5 W 1022,3 60 0,0
26.01.2020 19:00:00 10,0 5,6 4,4 10,6 11,7 4 2 13 7 W 1022,0 60 0,0
26.01.2020 18:00:00 11,5 6,2 9,0 10,5 11,6 8 5 16 9 WNW 1021,3 60 0,0
26.01.2020 17:00:00 12,7 6,5 12,0 10,4 11,6 9 5 23 12 WNW 1021,1 60 0,0
26.01.2020 16:00:00 13,5 6,4 13,6 10,3 11,6 12 6 23 12 NNW 1020,7 60 0,0
26.01.2020 15:00:00 14,4 6,5 15,8 10,1 11,6 4 2 14 8 NNW 1020,4 51 0,0
26.01.2020 14:00:00 13,5 7,0 13,0 10,0 11,6 8 4 29 16 N 1020,7 54 0,0
26.01.2020 13:00:00 13,4 7,4 15,0 9,9 11,6 6 3 19 10 NNW 1021,0 47 0,0
26.01.2020 12:00:00 11,7 7,0 12,5 9,8 11,6 6 3 13 7 SE 1021,4 36 0,0
26.01.2020 11:00:00 10,7 6,3 11,7 9,8 11,6 8 4 15 8 WNW 1021,2 60 0,0
26.01.2020 10:00:00 8,2 6,7 6,7 9,9 11,6 5 3 14 8 NNE 1020,5 39 0,0
26.01.2020 09:00:00 5,9 4,5 3,6 9,9 11,6 4 2 17 9 NNW 1019,9 52 0,0
26.01.2020 08:00:00 5,4 3,9 3,3 10,1 11,6 10 6 16 9 SW 1018,9 55 0,0
26.01.2020 07:00:00 5,8 4,9 1,3 10,1 11,6 9 5 12 7 SW 1018,0 35 0,0
26.01.2020 06:00:00 5,1 4,2 1,4 10,3 11,6 6 3 10 6 WSW 1017,9 35 0,0
26.01.2020 05:00:00 5,9 5,2 1,2 10,4 11,6 7 4 11 6 W 1017,4 40 0,0
26.01.2020 04:00:00 5,2 4,3 0,9 10,5 11,6 8 5 12 7 WSW 1017,5 17 0,0
26.01.2020 03:00:00 5,7 4,8 1,4 10,6 11,6 3 2 11 6 S 1017,5 10 0,0
26.01.2020 02:00:00 6,1 5,1 2,0 10,7 11,6 4 2 8 4 NNE 1017,4 8 0,0
26.01.2020 01:00:00 6,6 5,5 2,2 10,7 11,6 2 1 15 8 WNW 1017,7 15 0,0
26.01.2020 00:00:00 7,1 5,9 2,7 10,8 11,6 3 2 14 8 SW 1017,9 16 0,0
25.01.2020 23:00:00 8,8 7,4 3,1 10,9 11,6 4 2 9 5 SSE 1018,0 17 0,0
25.01.2020 22:00:00 9,0 7,6 3,9 10,9 11,6 2 1 6 4 NNE 1018,1 16 0,0
25.01.2020 21:00:00 9,4 7,0 5,1 11,0 11,6 3 2 12 7 W 1018,4 17 0,0
25.01.2020 20:00:00 11,2 9,1 7,9 11,0 11,6 10 5 20 11 ESE 1018,0 17 0,0
25.01.2020 19:00:00 12,0 9,4 11,1 10,9 11,6 10 5 17 9 SE 1017,9 17 0,0
25.01.2020 18:00:00 12,2 9,2 11,4 10,9 11,6 8 4 27 15 ESE 1017,7 16 0,0
25.01.2020 17:00:00 12,5 9,3 12,3 10,8 11,6 16 9 29 16 ESE 1017,7 16 0,0
25.01.2020 16:00:00 13,4 7,4 13,9 10,6 11,5 18 10 32 17 SE 1017,9 35 0,0
25.01.2020 15:00:00 14,7 6,5 16,4 10,5 11,6 12 7 27 15 ESE 1018,1 20 0,0
25.01.2020 14:00:00 12,5 8,6 13,6 10,4 11,6 8 4 16 8 NE 1019,0 19 0,0
25.01.2020 13:00:00 12,0 7,9 14,8 10,3 11,6 6 4 15 8 ENE 1020,1 19 0,0
25.01.2020 12:00:00 11,4 8,3 15,6 10,2 11,6 6 3 11 6 ESE 1021,3 19 0,0
25.01.2020 11:00:00 9,8 8,7 11,2 10,2 11,6 2 1 8 4 NW 1021,4 17 0,0
25.01.2020 10:00:00 8,7 7,9 9,1 10,2 11,6 5 3 8 4 SW 1021,3 12 0,0
25.01.2020 09:00:00 8,6 8,0 8,0 10,2 11,6 4 2 6 4 NNE 1021,0 4,4 0,0
25.01.2020 08:00:00 8,1 7,3 8,0 10,2 11,6 4 2 8 4 WSW 1021,0 12 0,0
25.01.2020 07:00:00 8,4 7,8 7,0 10,2 11,6 3 2 9 5 SW 1020,8 6 0,0
25.01.2020 06:00:00 7,9 7,3 6,8 10,2 11,5 5 3 13 7 WSW 1020,7 4,6 0,0
25.01.2020 05:00:00 8,2 7,6 7,8 10,2 11,5 7 4 12 7 SW 1020,8 0,5 0,0
25.01.2020 04:00:00 8,0 7,2 7,5 10,3 11,5 5 3 8 5 SSW 1021,1 17 0,0
25.01.2020 03:00:00 7,9 7,0 5,6 10,3 11,5 5 3 7 4 SSW 1021,7 19 0,0
25.01.2020 02:00:00 8,3 7,5 6,9 10,3 11,5 4 2 8 5 WSW 1021,9 19 0,0
25.01.2020 01:00:00 8,6 7,8 6,8 10,4 11,5 6 3 13 7 WSW 1022,3 18 0,0
25.01.2020 00:00:00 8,1 7,3 4,5 10,4 11,5 5 3 10 6 WSW 1022,3 14 0,0
24.01.2020 23:00:00 8,5 7,7 5,7 10,5 11,5 8 4 11 6 WSW 1022,7 12 0,0
24.01.2020 22:00:00 8,4 7,6 3,2 10,6 11,5 6 4 10 5 NW 1022,7 13 0,0
24.01.2020 21:00:00 8,7 7,6 3,6 10,6 11,5 5 3 12 6 NNW 1022,5 14 0,0
24.01.2020 20:00:00 9,1 8,2 4,7 10,6 11,5 6 4 10 5 NW 1022,3 13 0,0
24.01.2020 19:00:00 9,5 8,6 3,1 10,7 11,5 5 3 9 5 N 1022,0 18 0,0
24.01.2020 18:00:00 10,4 8,5 4,5 10,6 11,5 0 0 10 5 N 1021,4 37 0,0
24.01.2020 17:00:00 11,8 9,5 11,6 10,5 11,5 8 4 18 10 NE 1021,4 48 0,0
24.01.2020 16:00:00 12,4 9,8 12,1 10,4 11,5 11 6 26 14 E 1021,4 57 0,0
24.01.2020 15:00:00 12,9 9,3 13,8 10,2 11,5 16 9 25 14 E 1021,2 52 0,0
24.01.2020 14:00:00 12,5 9,7 13,8 10,1 11,4 9 5 22 12 ENE 1021,4 20 0,0
24.01.2020 13:00:00 11,6 9,0 13,4 10,0 11,4 12 6 18 10 NE 1022,0 17 0,0
24.01.2020 12:00:00 10,6 8,5 12,6 10,0 11,4 7 4 14 7 N 1022,4 20 0,0
24.01.2020 11:00:00 9,0 7,9 10,7 10,0 11,4 6 3 10 6 NE 1022,2 38 0,0
24.01.2020 10:00:00 7,7 7,1 5,2 10,1 11,4 8 5 12 6 WSW 1021,8 30 0,0
24.01.2020 09:00:00 5,8 5,2 2,3 10,2 11,4 10 5 18 10 SW 1021,7 20 0,0
24.01.2020 08:00:00 5,1 4,5 0,7 10,4 11,4 10 5 15 8 WSW 1021,5 16 0,0
24.01.2020 07:00:00 4,9 4,3 0,6 10,5 11,4 10 5 16 8 WSW 1021,3 14 0,0
24.01.2020 06:00:00 4,9 4,3 0,5 10,6 11,4 8 5 10 5 WSW 1021,0 12 0,0
24.01.2020 05:00:00 5,1 4,4 0,9 10,8 11,3 4 2 12 6 W 1021,0 10 0,0
24.01.2020 04:00:00 5,6 4,7 1,8 10,9 11,3 4 2 10 5 WSW 1021,6 10 0,0
24.01.2020 03:00:00 6,6 5,9 2,6 11,0 11,3 4 2 12 7 SSW 1022,2 15 0,0
24.01.2020 02:00:00 6,9 6,0 4,0 11,1 11,3 9 5 13 7 WSW 1022,3 13 0,0
24.01.2020 01:00:00 8,4 7,5 5,4 11,2 11,3 7 4 17 9 NW 1022,7 14 0,0
24.01.2020 00:00:00 8,2 7,3 5,1 11,3 11,3 9 5 12 7 WNW 1023,0 11 0,0
23.01.2020 23:00:00 8,9 8,1 3,5 11,4 11,3 6 3 13 7 NW 1023,1 11 0,0
23.01.2020 22:00:00 9,3 8,2 4,2 11,5 11,3 4 2 11 6 NNW 1022,9 12 0,0
23.01.2020 21:00:00 10,0 8,1 5,9 11,5 11,3 4 2 26 14 N 1022,6 14 0,0
23.01.2020 20:00:00 11,5 9,9 10,3 11,5 11,2 16 8 27 15 ESE 1022,0 14 0,0
23.01.2020 19:00:00 11,7 10,1 10,8 11,5 11,2 14 7 35 19 ESE 1021,5 13 0,0
23.01.2020 18:00:00 12,2 9,9 11,4 11,4 11,2 24 13 36 19 ESE 1020,8 14 0,0
23.01.2020 17:00:00 13,5 9,7 13,3 11,3 11,2 21 11 40 22 E 1020,6 15 0,0
23.01.2020 16:00:00 14,6 11,6 15,5 11,0 11,2 23 13 38 21 ESE 1020,4 10 0,0
23.01.2020 15:00:00 14,7 11,8 15,5 10,9 11,2 22 12 32 17 E 1020,5 9 0,0
23.01.2020 14:00:00 14,1 11,8 12,2 10,9 11,2 14 8 30 16 E 1020,7 16 0,0
23.01.2020 13:00:00 11,4 10,5 10,6 10,8 11,2 11 6 53 29 E 1021,8 11 7,3
23.01.2020 12:00:00 13,2 11,8 12,5 10,8 11,1 26 14 59 32 ESE 1021,8 8 0,6
23.01.2020 11:00:00 13,6 11,5 12,5 10,7 11,1 34 19 55 30 ESE 1021,6 11 0,0
23.01.2020 10:00:00 13,0 11,6 12,1 10,7 11,1 32 17 60 33 E 1021,6 8 0,0
23.01.2020 09:00:00 12,4 11,3 12,0 10,7 11,1 26 14 59 32 E 1021,8 8 5,3
23.01.2020 08:00:00 12,8 11,5 12,3 10,7 11,1 36 19 61 33 E 1021,2 2,8 4,0
23.01.2020 07:00:00 13,2 11,6 12,4 10,6 11,1 35 19 57 31 E 1020,9 9 0,0
23.01.2020 06:00:00 13,2 11,4 12,6 10,6 11,1 31 17 53 29 E 1021,3 10 0,0
23.01.2020 05:00:00 13,0 11,6 12,2 10,5 11,1 30 16 50 27 E 1021,9 9 0,0
23.01.2020 04:00:00 12,8 11,5 12,2 10,5 11,1 31 17 49 26 E 1022,4 7 0,4
23.01.2020 03:00:00 12,9 11,5 12,2 10,4 11,1 31 17 51 27 E 1022,8 9 0,4
23.01.2020 02:00:00 13,0 11,4 12,2 10,4 11,1 31 17 47 25 E 1023,1 10 0,0
23.01.2020 01:00:00 13,0 11,6 12,2 10,4 11,1 31 17 53 29 E 1023,6 8 0,2
23.01.2020 00:00:00 13,2 11,3 12,4 10,3 11,1 34 18 52 28 E 1023,8 10 0,0
22.01.2020 23:00:00 13,2 11,3 12,5 10,3 11,1 32 17 50 27 E 1023,9 10 0,0
22.01.2020 22:00:00 13,2 11,3 12,4 10,2 11,1 31 17 52 28 E 1023,8 10 0,0
22.01.2020 21:00:00 13,2 11,1 12,6 10,1 11,1 33 18 55 30 E 1023,7 10 0,0
22.01.2020 20:00:00 13,2 11,1 12,3 10,1 11,1 32 17 63 34 E 1023,7 10 0,0
22.01.2020 19:00:00 13,0 11,1 12,0 10,0 11,1 35 19 61 33 E 1023,3 11 0,2
22.01.2020 18:00:00 12,7 11,3 12,0 9,9 11,1 39 21 61 33 E 1022,9 3,7 0,6
22.01.2020 17:00:00 12,8 11,4 12,1 9,8 11,1 37 20 69 38 E 1022,8 3,9 0,4
22.01.2020 16:00:00 12,9 11,1 12,0 9,7 11,1 41 22 67 36 E 1023,0 10 0,0
22.01.2020 15:00:00 12,8 10,9 12,1 9,6 11,2 39 21 67 36 E 1023,0 7 0,0
22.01.2020 14:00:00 13,1 11,0 12,4 9,5 11,2 41 22 75 41 E 1023,5 10 0,2
22.01.2020 13:00:00 13,5 11,0 12,6 9,4 11,2 44 24 68 37 E 1024,2 10 0,0
22.01.2020 12:00:00 13,4 11,1 12,2 9,3 11,2 38 21 67 36 E 1024,7 9 0,0
22.01.2020 11:00:00 13,3 11,0 11,7 9,2 11,2 43 23 74 40 E 1024,9 11 0,2
22.01.2020 10:00:00 13,2 10,6 11,6 9,1 11,2 47 25 77 42 E 1024,0 9 0,0
22.01.2020 09:00:00 12,6 10,5 11,0 9,0 11,2 41 22 77 41 E 1024,0 7 1,2
22.01.2020 08:00:00 12,4 9,9 10,9 8,9 11,3 44 24 80 43 E 1023,6 8 0,8
22.01.2020 07:00:00 11,8 10,0 10,7 8,8 11,3 42 23 73 40 E 1023,9 8 3,0
22.01.2020 06:00:00 11,7 10,1 10,7 8,8 11,3 32 18 69 38 E 1024,4 6 4,6
22.01.2020 05:00:00 11,8 9,9 10,8 8,7 11,3 35 19 77 42 E 1025,0 5 1,0
22.01.2020 04:00:00 12,5 9,1 10,7 8,6 11,3 39 21 69 37 E 1025,3 12 0,2
22.01.2020 03:00:00 12,5 9,0 10,6 8,6 11,3 37 20 64 34 E 1025,9 13 0,0
22.01.2020 02:00:00 11,9 8,9 10,2 8,5 11,4 33 18 53 28 ENE 1026,6 11 0,8
22.01.2020 01:00:00 11,2 9,5 9,9 8,4 11,4 30 16 58 32 ENE 1027,2 6 1,4
22.01.2020 00:00:00 11,3 8,7 10,0 8,4 11,4 36 19 59 32 ENE 1027,9 3,1 1,0
21.01.2020 23:00:00 11,8 8,3 9,4 8,3 11,4 34 19 57 31 E 1028,3 13 0,2
21.01.2020 22:00:00 10,2 8,5 9,0 8,3 11,4 22 12 46 25 NE 1029,1 13 0,4
21.01.2020 21:00:00 9,9 8,2 9,0 8,2 11,5 16 9 35 19 NE 1029,5 4,8 1,2
21.01.2020 20:00:00 10,6 8,4 9,1 8,2 11,5 22 12 48 26 ENE 1029,9 12 0,0
21.01.2020 19:00:00 10,2 8,3 8,5 8,1 11,5 16 9 25 14 ENE 1030,0 10 1,2
21.01.2020 18:00:00 9,8 8,6 8,8 8,0 11,5 4 2 25 14 ENE 1030,3 4,7 2,4
21.01.2020 17:00:00 9,8 8,2 8,7 7,9 11,5 18 10 46 25 ENE 1030,1 7 2,6
21.01.2020 16:00:00 9,3 7,9 8,6 7,9 11,6 17 9 35 19 ENE 1030,3 6 2,4
21.01.2020 15:00:00 9,3 7,4 8,5 7,8 11,6 19 10 45 24 NE 1030,5 7 1,4
21.01.2020 14:00:00 9,3 7,2 8,2 7,8 11,6 28 15 55 30 ENE 1030,9 7 1,0
21.01.2020 13:00:00 9,1 7,4 7,0 7,8 11,6 24 13 51 28 E 1031,5 14 0,8
21.01.2020 12:00:00 7,5 7,1 5,4 7,8 11,6 4 2 37 20 S 1032,9 7 13,1
21.01.2020 11:00:00 5,2 4,6 4,6 7,8 11,6 7 4 21 11 SW 1033,5 1,4 11,2
21.01.2020 10:00:00 4,7 4,1 3,6 7,9 11,7 10 5 29 16 W 1033,5 2,5 7,9
21.01.2020 09:00:00 3,6 2,9 2,8 7,9 11,7 13 7 30 16 WNW 1033,4 2,5 5,4
21.01.2020 08:00:00 2,8 1,9 2,7 8,1 11,7 19 10 31 17 WSW 1033,9 3,5 4,8
21.01.2020 07:00:00 3,0 2,1 2,4 8,2 11,8 12 6 23 12 W 1033,8 5 6,2
21.01.2020 06:00:00 3,5 2,5 3,3 8,3 11,8 13 7 30 16 WNW 1034,1 3,4 5,9
21.01.2020 05:00:00 3,8 2,8 3,5 8,4 11,8 17 9 33 18 NNW 1034,1 4,7 6,6
21.01.2020 04:00:00 3,9 2,6 3,5 8,6 11,8 18 10 29 16 NNW 1034,7 4,9 5,4
21.01.2020 03:00:00 4,5 3,2 4,1 8,7 11,8 15 8 32 17 N 1035,1 6 4,4
21.01.2020 02:00:00 4,5 3,2 4,1 8,8 11,8 15 8 25 14 NNW 1035,4 5 4,8
21.01.2020 01:00:00 4,7 3,2 4,2 8,9 11,8 14 8 23 13 NNW 1035,7 5 5,3
21.01.2020 00:00:00 4,8 3,6 4,5 8,9 11,8 11 6 19 10 WNW 1036,2 3,7 4,0
20.01.2020 23:00:00 4,9 3,4 4,6 8,9 11,8 10 6 18 10 W 1036,0 5 2,4

tt = Température de l'air
td = dewpoint
tt 5cm = Température de l'air 5cm
tt -20cm = Température de l'air -20cm
tt -100cm = Température de l'air -100cm
ff = Vitesse du vent
fx = gusts
dd = Direction du vent
ppp = reduced air pressure
vv = visibility
rr = Quantités de précipitations

stations d'obs. à proximité